Погода в Истошино

Россия / Тюменская область     55°57′25″N   68°14′15″E
темп.,
°C
ветер,
м/с
пор.,
м/с
влажн.,
%
обл.,
%
осадки,
мм/ч
давл.,
гПа
погр.,
м
17 апреля, сб
сб1723:00+2ссв49630 0.0 1027239
02:000св36700 0.0 1027151
05:00−1в22750 0.0 102856
08:00+2ю22664 0.0 1028377
11:00+5зюз33482 0.0 10261158
14:00+8зюз46394 0.0 10241551
17:00+9з68405 0.0 10221777
20:00+6зюз365875 0.0 102099
18 апреля, вс
вс1823:00+4зюз4106830 0.0 1018181
02:00+3зюз4117393 0.0 1016202
05:00+2з5127787 0.0 1014261
08:00+5зсз7136952 0.0 1012760
11:00+2ссз91286100 0.4 1014970
14:00+2с101245100 0.1 10191844
17:00+1с91139100 0.1 10232182
20:00−2с711440 0.0 10271222
19 апреля, пн
пн1923:00−4ссв611430 0.0 10301340
02:00−6с69440 0.0 10311233
05:00−7с58450 0.0 10331157
08:00−6ссв67395 0.0 10351321
11:00−3с5734100 0.0 10351789
14:00−1с5629100 0.0 10352100
17:00−1с5630100 0.0 10342196
20:00−3с224562 0.0 103516
20 апреля, вт
вт2023:00−4с22480 0.0 103517
02:00−4зсз22469 0.0 103532
05:00−4з36485 0.0 1035176
08:000з593766 0.0 1034610
11:00+4з793247 0.0 10311494
14:00+6зсз811335 0.0 10291677
17:00+7зсз7113959 0.0 10281664
20:00+4зсз4105458 0.0 1028191
21 апреля, ср
ср2123:00+3з513635 0.0 1027255
02:00+2зсз513675 0.0 1027241
05:00+1зсз512748 0.0 1027227
08:00+5сз610695 0.0 1028459
11:00+8ссз695791 0.0 10281436
14:00+6с686598 0.0 1031932
17:00+6ссв5764100 0.0 10331125
20:00+4св23695 0.0 103587